User: anonymous   Login
Location: Muenchen
(48.1800°N, 11.5800°E)
Time: 00:35:38
(UTC+01:00)
Language:

Iridium 73 - Orbit

View from above orbital plane
View from above orbital plane
View from above satellite
View from above satellite

Ground track
Ground track

The orbit data is extracted from the following two-line orbital elements,

1 25344U 98032C   17346.51098551  .00000145  00000-0  32795-4 0  9995
2 25344  86.4423 127.6248 0002173 109.2834 250.8605 14.49082429 33372
Epoch (UTC): 12 December 2017 12:15:49
Eccentricity: 0.0002173
inclination: 86.4423°
perigee height: 727 km
apogee height: 730 km
right ascension of ascending node: 127.6248°
argument of perigee: 109.2834°
revolutions per day: 14.49082429
mean anomaly at epoch: 250.8605°
orbit number at epoch: 3337

The dashed part of the orbit path shows where the satellite is in the earth's shadow,  

DLR